Glenwood, MN

10:15 AM CDT on July 25, 2017 (GMT -0500)
Glenwood Municipal

Weather History for KGHW - July, 2014

Change the Weather History Date:

Friday, July 25, 2014

  Actual Average Record
Temperature  
Mean Temperature 70 °F -  
Max Temperature 78 °F 82 °F 96 °F (2007)
Min Temperature 62 °F 58 °F 50 °F (1991)
Cooling Degree Days 5    
Growing Degree Days 20 (Base 50)    
Moisture  
Dew Point 65 °F    
Average Humidity 84    
Maximum Humidity 100    
Minimum Humidity 65    
Precipitation  
Precipitation 0.09 in - - ()
Sea Level Pressure  
Sea Level Pressure 29.80 in    
Wind  
Wind Speed 10 mph (SSW)    
Max Wind Speed 24 mph    
Max Gust Speed 34 mph    
Visibility 10 miles    
Events Rain , Thunderstorm    
Averages and records for this station are not official NWS values.
T = Trace of Precipitation, MM = Missing Value Source: NWS Daily Summary

Daily Weather History Graph

Daily Weather History Graph

Search for Another Location

Airport or City:

Trip Planner

Search our weather history database for the weather conditions in past years. The results will help you decide how hot, cold, wet, or windy it might be!

Date:

Astronomy

Jul. 25, 2014 Rise Set
Actual Time 5:56 AM CDT 8:58 PM CDT
Civil Twilight 5:21 AM CDT 9:33 PM CDT
Nautical Twilight 4:36 AM CDT 10:18 PM CDT
Astronomical Twilight 3:41 AM CDT 11:12 PM CDT
Moon 4:59 AM CDT 7:52 PM CDT
Length of Visible Light 16h 11m
Length of Day
15h 01m
Waning Crescent, 1% of the Moon is Illuminated
Jul 25
Waning Crescent
Jul 26
New
Aug 3
First Quarter
Aug 10
Full
Aug 17
Last Quarter

Hourly Weather History & Observations

Time (CDT) Temp. Dew Point Humidity Pressure Visibility Wind Dir Wind Speed Gust Speed Precip Events Conditions
12:14 AM 64.4 °F 60.8 °F 88% 29.82 in 10.0 mi SSE 16.1 mph 23.0 mph N/A   Clear
12:34 AM 64.4 °F 60.8 °F 88% 29.84 in 10.0 mi SE 12.7 mph 20.7 mph N/A   Clear
12:55 AM 64.4 °F 60.8 °F 88% 29.83 in 10.0 mi SE 13.8 mph - N/A   Clear
1:14 AM 64.4 °F 60.8 °F 88% 29.82 in 10.0 mi ESE 9.2 mph - N/A   Clear
1:34 AM 62.6 °F 60.8 °F 94% 29.83 in 10.0 mi ESE 9.2 mph - N/A   Clear
1:54 AM 64.4 °F 60.8 °F 88% 29.83 in 10.0 mi East 9.2 mph - N/A   Mostly Cloudy
2:14 AM 64.4 °F 60.8 °F 88% 29.81 in 10.0 mi ESE 8.1 mph - N/A   Mostly Cloudy
2:35 AM 64.4 °F 60.8 °F 88% 29.82 in 10.0 mi SE 10.4 mph - N/A Thunderstorm Scattered Clouds
2:54 AM 64.4 °F 60.8 °F 88% 29.83 in 10.0 mi SE 10.4 mph - N/A   Mostly Cloudy
3:14 AM 64.4 °F 60.8 °F 88% 29.83 in 10.0 mi ESE 9.2 mph - N/A Rain , Thunderstorm Light Thunderstorms and Rain
3:35 AM 62.6 °F 60.8 °F 94% 29.84 in 10.0 mi ESE 5.8 mph - N/A Rain , Thunderstorm Light Thunderstorms and Rain
3:54 AM 62.6 °F 60.8 °F 94% 29.83 in 10.0 mi SE 5.8 mph - 0.01 in Rain , Thunderstorm Light Thunderstorms and Rain
4:14 AM 62.6 °F 60.8 °F 94% 29.82 in 10.0 mi SSE 4.6 mph - 0.02 in Rain , Thunderstorm Thunderstorms and Rain
4:35 AM 62.6 °F 60.8 °F 94% 29.67 in 10.0 mi East 24.2 mph 34.5 mph 0.07 in Rain , Thunderstorm Light Thunderstorms and Rain
4:54 AM 62.6 °F 60.8 °F 94% 29.70 in 10.0 mi East 20.7 mph 26.5 mph 0.07 in   Mostly Cloudy
5:14 AM 62.6 °F 60.8 °F 94% 29.80 in 10.0 mi South 17.3 mph - N/A   Scattered Clouds
5:34 AM 62.6 °F 62.6 °F 100% 29.81 in 10.0 mi SSW 18.4 mph 26.5 mph 0.01 in   Mostly Cloudy
5:54 AM 64.4 °F 62.6 °F 94% 29.76 in 10.0 mi SSW 15.0 mph - 0.01 in   Scattered Clouds
6:14 AM 64.4 °F 62.6 °F 94% 29.76 in 10.0 mi South 9.2 mph - N/A   Clear
6:34 AM 64.4 °F 62.6 °F 94% 29.76 in 10.0 mi SSE 8.1 mph - N/A   Clear
6:54 AM 64.4 °F 62.6 °F 94% 29.79 in 10.0 mi South 6.9 mph - N/A   Clear
7:15 AM 64.4 °F 62.6 °F 94% 29.79 in 10.0 mi ESE 5.8 mph - N/A   Clear
7:34 AM 64.4 °F 62.6 °F 94% 29.80 in 10.0 mi SE 6.9 mph - N/A   Scattered Clouds
7:55 AM 66.2 °F 62.6 °F 88% 29.82 in 10.0 mi East 6.9 mph - N/A   Scattered Clouds
8:14 AM 66.2 °F 64.4 °F 94% 29.82 in 10.0 mi ESE 8.1 mph - N/A   Scattered Clouds
8:35 AM 68.0 °F 64.4 °F 88% 29.83 in 10.0 mi ESE 9.2 mph - N/A   Scattered Clouds
8:54 AM 69.8 °F 64.4 °F 83% 29.83 in 10.0 mi ESE 10.4 mph - N/A   Scattered Clouds
9:14 AM 68.0 °F 64.4 °F 88% 29.83 in 10.0 mi SE 10.4 mph - N/A   Mostly Cloudy
9:35 AM 69.8 °F 64.4 °F 83% 29.82 in 10.0 mi SE 11.5 mph - N/A   Scattered Clouds
9:54 AM 71.6 °F 64.4 °F 78% 29.81 in 10.0 mi SSE 11.5 mph - N/A   Scattered Clouds
10:14 AM 71.6 °F 66.2 °F 83% 29.80 in 10.0 mi SE 11.5 mph 18.4 mph N/A   Scattered Clouds
10:34 AM 73.4 °F 66.2 °F 78% 29.80 in 10.0 mi SSE 12.7 mph - N/A   Scattered Clouds
10:54 AM 73.4 °F 66.2 °F 78% 29.80 in 10.0 mi SSE 13.8 mph - N/A   Scattered Clouds
11:15 AM 73.4 °F 66.2 °F 78% 29.79 in 10.0 mi SSE 13.8 mph - N/A   Scattered Clouds
11:34 AM 75.2 °F 66.2 °F 73% 29.79 in 10.0 mi South 12.7 mph - N/A   Scattered Clouds
12:14 PM 73.4 °F 66.2 °F 78% 29.80 in 10.0 mi SSW 10.4 mph - N/A   Scattered Clouds
12:34 PM 75.2 °F 66.2 °F 73% 29.79 in 10.0 mi SSW 12.7 mph - N/A   Scattered Clouds
12:54 PM 75.2 °F 66.2 °F 73% 29.79 in 10.0 mi SW 12.7 mph 17.3 mph N/A   Clear
1:14 PM 75.2 °F 66.2 °F 73% 29.78 in 10.0 mi SSW 11.5 mph 16.1 mph N/A   Clear
1:34 PM 77.0 °F 66.2 °F 69% 29.78 in 10.0 mi SSW 10.4 mph - N/A   Clear
1:55 PM 75.2 °F 66.2 °F 73% 29.79 in 10.0 mi SW 8.1 mph - N/A   Clear
2:14 PM 75.2 °F 66.2 °F 73% 29.79 in 10.0 mi WSW 8.1 mph - N/A   Scattered Clouds
2:34 PM 75.2 °F 66.2 °F 73% 29.79 in 10.0 mi WSW 6.9 mph - N/A   Scattered Clouds
2:54 PM 75.2 °F 66.2 °F 73% 29.79 in 10.0 mi West 5.8 mph - N/A   Scattered Clouds
3:14 PM 75.2 °F 68.0 °F 78% 29.79 in 10.0 mi WSW 5.8 mph - N/A   Clear
3:35 PM 75.2 °F 68.0 °F 78% 29.79 in 10.0 mi West 5.8 mph - N/A   Clear
3:54 PM 77.0 °F 68.0 °F 74% 29.79 in 10.0 mi West 3.5 mph - N/A   Clear
4:14 PM 78.8 °F 68.0 °F 69% 29.79 in 10.0 mi West 6.9 mph - N/A   Clear
4:34 PM 75.2 °F 68.0 °F 78% 29.79 in 10.0 mi NW 5.8 mph - N/A   Clear
4:54 PM 78.8 °F 68.0 °F 69% 29.79 in 10.0 mi SW 5.8 mph - N/A   Clear
5:15 PM 77.0 °F 68.0 °F 74% 29.79 in 10.0 mi Calm Calm - N/A   Clear
5:34 PM 77.0 °F 68.0 °F 74% 29.79 in 10.0 mi West 3.5 mph - N/A   Scattered Clouds
5:55 PM 78.8 °F 66.2 °F 65% 29.79 in 10.0 mi WNW 5.8 mph - N/A   Scattered Clouds
6:14 PM 78.8 °F 66.2 °F 65% 29.78 in 10.0 mi NW 3.5 mph - N/A   Clear
6:34 PM 77.0 °F 68.0 °F 74% 29.78 in 10.0 mi NW 3.5 mph - N/A   Clear
6:54 PM 77.0 °F 68.0 °F 74% 29.78 in 10.0 mi Calm Calm - N/A   Scattered Clouds
7:14 PM 75.2 °F 68.0 °F 78% 29.78 in 10.0 mi NW 3.5 mph - N/A   Scattered Clouds
7:34 PM 75.2 °F 69.8 °F 83% 29.79 in 10.0 mi NW 4.6 mph - N/A   Clear
7:54 PM 75.2 °F 68.0 °F 78% 29.79 in 10.0 mi WNW 4.6 mph - N/A   Clear
8:14 PM 75.2 °F 68.0 °F 78% 29.79 in 10.0 mi WNW 5.8 mph - N/A   Scattered Clouds
8:34 PM 73.4 °F 68.0 °F 83% 29.79 in 10.0 mi WNW 4.6 mph - N/A   Clear
8:54 PM 71.6 °F 68.0 °F 88% 29.79 in 10.0 mi WNW 3.5 mph - N/A   Clear
9:14 PM 69.8 °F 68.0 °F 94% 29.80 in 10.0 mi WNW 4.6 mph - N/A   Clear
9:34 PM 69.8 °F 66.2 °F 88% 29.81 in 10.0 mi West 3.5 mph - N/A   Clear
9:54 PM 69.8 °F 66.2 °F 88% 29.81 in 10.0 mi West 3.5 mph - N/A   Clear
10:14 PM 68.0 °F 66.2 °F 94% 29.82 in 5.0 mi West 3.5 mph - N/A   Clear
10:34 PM 68.0 °F 66.2 °F 94% 29.83 in 7.0 mi West 4.6 mph - N/A   Clear
10:54 PM 68.0 °F 66.2 °F 94% 29.84 in 10.0 mi West 6.9 mph - N/A   Clear
11:14 PM 68.0 °F 66.2 °F 94% 29.84 in 7.0 mi West 4.6 mph - N/A   Clear
11:34 PM 68.0 °F 66.2 °F 94% 29.85 in 7.0 mi West 5.8 mph - N/A   Clear
11:54 PM 68.0 °F 66.2 °F 94% 29.85 in 5.0 mi WNW 4.6 mph - N/A   Clear